Regional Weather Roundup
Issued by NWS Jackson, KY

Home | Current Version | Previous Version | Text Only | Print | Product List | Glossary Off
Versions: 1 2 3 4 5 6 7 8 9 10 11 12 13 14 15 16 17 18 19 20 21 22 23 24 25 26 27 28 29 30 31 32 33 34 35 36 37 38 39 40 41 42 43 44 45 46 47 48 49

000
ASUS43 KJKL 310010
RWRJKL

EAST KENTUCKY HOURLY WEATHER ROUNDUP
NATIONAL WEATHER SERVICE JACKSON KY
800 PM EDT THU JUL 30 2015

NOTE: "FAIR" INDICATES FEW OR NO CLOUDS BELOW 12,000 FEET WITH
NO SIGNIFICANT WEATHER AND/OR OBSTRUCTIONS TO VISIBILITY.

* THESE REPORTS ARE NOT UNDER NWS QUALITY CONTROL AND MAY NOT
  REPORT WEATHER SUCH AS PRECIPITATION AND FOG.

KYZ079-080-083-085-087-088-110-112-115-119-120-310100
...EASTERN KENTUCKY...

CITY           SKY/WX    TMP DP  RH WIND       PRES   REMARKS
JACKSON        CLEAR     79  58  48 N5        30.05S
6HR MIN TEMP:  79; 6HR MAX TEMP:  84;

LONDON         CLEAR     82  57  42 NW10      30.05S
6HR MIN TEMP:  82; 6HR MAX TEMP:  87;

SOMERSET*      CLEAR     79  57  47 N5        30.06R
MONTICELLO*    CLEAR     80  64  58 N7        30.08S
6HR MIN TEMP:  80; 6HR MAX TEMP:  88;

WILLIAMSBURG*  CLEAR     79  63  57 N6        30.05
MIDDLESBORO*   CLEAR     81  64  55 N8        30.03S
6HR MIN TEMP:  81; 6HR MAX TEMP:  88;

HAZARD APT*    CLEAR     79  61  53 NW3       30.04S
BLACK MTN*       N/A     66  61  82 N6          N/A
PIKEVILLE APT* CLEAR     77  64  65 NW6       30.04R
BIG SANDY*     CLEAR     80  62  54 N5        30.04R
6HR MIN TEMP:  80; 6HR MAX TEMP:  85;

MOREHEAD APT*  CLEAR     81  61  50 W5        30.06R
$$

KYZ035-036-041-042-044-050-067-078-099-310100
...CENTRAL KENTUCKY...

CITY           SKY/WX    TMP DP  RH WIND       PRES   REMARKS
MT STERLING*   CLEAR     79  63  57 N5        30.06S
FLEMING/MASON* CLEAR     79  61  53 NW5       30.04F
DANVILLE*      CLEAR     79  59  50 N6        30.07S
RICHMOND*      CLEAR     79  61  53 NW6       30.05S
LEXINGTON      CLEAR     79  59  50 NW7       30.06R
6HR MIN TEMP:  79; 6HR MAX TEMP:  85;

FRANKFORT      CLEAR     81  60  48 NW3       30.04S
6HR MIN TEMP:  81; 6HR MAX TEMP:  85;

$$

KYZ091>093-OHZ055-061-077-WVZ005-015-034-035-042-310100
...SOUTHERN OHIO/WEST VIRGINIA...

CITY           SKY/WX    TMP DP  RH WIND       PRES   REMARKS
COVINGTON      PTCLDY    82  56  40 N12       30.04S
COLUMBUS       PTCLDY    80  58  46 W12       29.99S
DAYTON         PTCLDY    79  58  48 NW8       30.03S
WILMINGTON     CLEAR     80  58  46 W6        30.02S
HUNTINGTON     CLEAR     80  58  46 NW6       30.01R
CHARLESTON     PTCLDY    81  61  50 NW6       30.00R
PINEVILLE*     CLEAR     72  68  87 MISG      30.10R
BECKLEY        PTCLDY    75  59  57 N7        30.08R
BLUEFIELD      PTCLDY    77  62  59 NW8       30.10R
$$

VAZ002-007-008-TNZ017-027-036-066-071-310100
...SOUTHWEST VIRGINIA/EAST TENNESSEE...

CITY           SKY/WX    TMP DP  RH WIND       PRES   REMARKS
WISE*          CLEAR     75  57  53 NW3       30.12R
ABINGDON*      PTCLDY    81  65  58 N6        30.05R
BRISTOL        PTCLDY    83  68  60 N7        30.00R
KNOXVILLE      MOCLDY    85  65  51 N13       29.98R
OAK RIDGE      CLEAR     85  64  49 VRB7      30.01R
CROSSVILLE     CLEAR     79  62  56 N9        30.09R
NASHVILLE      CLEAR     84  61  45 N13       30.05R
$$

...KEY TO REMARKS...
VSB - VISIBILITY IN MILES
WCI - WIND CHILL INDEX
HX  - HEAT INDEX

$$



USA.gov is the U.S. government's official web portal to all federal, state and local government web resources and services.